Gesamt
Sisseton Muni Airport (Sisseton, SD) 8D3 Wetter
|
Sisseton, SD (8D3)
Klarer Himmel
Windig |
|
26 °C |
There is no TAF data available at 8D3 or any nearby airports.
Kürzlicher METAR-Verlauf für 8D3
| Date | Time (CDT) | Flight Rules | Wind Dir. | Speed | Type | Height AGL (ft) | Visibility | Temp (°C) | Temp (°F) | Dew Point (°C) | Dew Point (°F) | Rel. Humid. | Pressure | Density Altitude | Remarks |
|---|---|---|---|---|---|---|---|---|---|---|---|---|---|---|---|
| 06-Sep | 17:56 | n/a | 150° | 16 kt | Missing | 26° | 78° | 20° | 68° | 69% | 29.96 in Hg | 2.680 ft | Wind gusting to 23 KT | ||
| 06-Sep | 16:56 | n/a | 210° | 7 kt | Missing | 28° | 82° | 19° | 66° | 59% | 29.97 in Hg | 2.910 ft | |||
| 06-Sep | 15:56 | n/a | 140° | 5 kt | Missing | 27° | 80° | 23° | 73° | 79% | 29.98 in Hg | 2.780 ft | |||
| 06-Sep | 14:56 | n/a | 160° | 5 kt | Missing | 26° | 78° | 23° | 73° | 87% | 29.97 in Hg | 2.670 ft | |||
| 06-Sep | 13:56 | n/a | 140° | 6 kt | Missing | 24° | 75° | 23° | 73° | 91% | 29.98 in Hg | 2.420 ft | |||
| 06-Sep | 12:56 | n/a | 150° | 6 kt | Missing | 24° | 75° | 23° | 73° | 94% | 29.99 in Hg | 2.410 ft | |||
| 06-Sep | 11:56 | n/a | 160° | 8 kt | Missing | 24° | 75° | 23° | 73° | 94% | 30.00 in Hg | 2.400 ft | |||
| 06-Sep | 10:56 | n/a | 130° | 10 kt | Missing | 24° | 75° | 22° | 71° | 90% | 29.99 in Hg | 2.410 ft | |||
| 06-Sep | 09:56 | n/a | 150° | 8 kt | Missing | 23° | 73° | 22° | 71° | 94% | 29.99 in Hg | 2.290 ft | |||
| 06-Sep | 08:56 | n/a | 150° | 10 kt | Missing | 23° | 73° | 22° | 71° | 96% | 29.99 in Hg | 2.290 ft | |||
| 06-Sep | 07:56 | n/a | 150° | 10 kt | Missing | 22° | 71° | 22° | 71° | 97% | 29.98 in Hg | 2.180 ft | |||
| 06-Sep | 06:56 | n/a | 150° | 9 kt | Missing | 22° | 71° | 22° | 71° | 97% | 29.98 in Hg | 2.180 ft | |||
| 06-Sep | 05:56 | n/a | 150° | 7 kt | Missing | 23° | 73° | 22° | 71° | 96% | 29.98 in Hg | 2.300 ft | |||
| 06-Sep | 04:56 | n/a | 170° | 4 kt | Missing | 22° | 71° | 22° | 71° | 97% | 29.98 in Hg | 2.180 ft | |||
| 06-Sep | 03:56 | n/a | 170° | 3 kt | Missing | 22° | 71° | 22° | 71° | 97% | 29.97 in Hg | 2.190 ft | |||
| 06-Sep | 02:56 | n/a | 160° | 5 kt | Missing | 22° | 71° | 22° | 71° | 97% | 29.97 in Hg | 2.190 ft | |||
| 06-Sep | 01:56 | n/a | 200° | 5 kt | Missing | 22° | 71° | 21° | 69° | 96% | 29.98 in Hg | 2.180 ft | |||
| 06-Sep | 00:56 | n/a | 200° | 4 kt | Missing | 22° | 71° | 22° | 71° | 97% | 29.98 in Hg | 2.180 ft | |||
| 05-Sep | 23:56 | n/a | 140° | 5 kt | Missing | 22° | 71° | 22° | 71° | 97% | 29.98 in Hg | 2.180 ft | |||
| 05-Sep | 22:56 | n/a | 130° | 4 kt | Missing | 23° | 73° | 22° | 71° | 94% | 29.97 in Hg | 2.310 ft | |||
| 05-Sep | 21:56 | n/a | 50° | 3 kt | Missing | 22° | 71° | 20° | 68° | 87% | 29.97 in Hg | 2.190 ft | |||
| 05-Sep | 20:56 | n/a | 120° | 6 kt | Missing | 23° | 73° | 21° | 69° | 85% | 29.95 in Hg | 2.330 ft | |||
| 05-Sep | 19:56 | n/a | 130° | 7 kt | Missing | 26° | 78° | 20° | 68° | 71% | 29.94 in Hg | 2.700 ft | |||
| 05-Sep | 18:56 | n/a | 130° | 7 kt | Missing | 28° | 82° | 19° | 66° | 60% | 29.94 in Hg | 2.940 ft |
Anmelden
| Ihr Browser wird nicht unterstützt. aktualisieren Sie Ihren Browser |
